TimeCDT,TemperatureF,Dew PointF,Humidity,Sea Level PressureIn,VisibilityMPH,Wind Direction,Wind SpeedMPH,Gust SpeedMPH,PrecipitationIn,Events,Conditions,WindDirDegrees,DateUTC
12:15 AM,78.8,69.8,74,29.87,10.0,SSE,17.3,25.3,N/A,,Scattered Clouds,160,2013-06-21 05:15:00
12:35 AM,78.8,71.6,78,29.87,10.0,South,19.6,25.3,N/A,,Scattered Clouds,170,2013-06-21 05:35:00
12:55 AM,78.8,71.6,78,29.86,10.0,South,21.9,28.8,N/A,,Scattered Clouds,170,2013-06-21 05:55:00
1:15 AM,78.8,71.6,78,29.85,10.0,South,19.6,31.1,N/A,,Partly Cloudy,170,2013-06-21 06:15:00
1:35 AM,78.8,71.6,78,29.85,10.0,South,20.7,-,N/A,,Clear,170,2013-06-21 06:35:00
1:55 AM,78.8,71.6,78,29.84,10.0,South,17.3,26.5,N/A,,Clear,180,2013-06-21 06:55:00
2:15 AM,78.8,71.6,78,29.84,10.0,South,16.1,24.2,N/A,,Clear,170,2013-06-21 07:15:00
2:35 AM,78.8,71.6,78,29.83,10.0,South,15.0,25.3,N/A,,Partly Cloudy,180,2013-06-21 07:35:00
2:55 AM,77.0,71.6,83,29.82,10.0,South,16.1,21.9,N/A,,Clear,180,2013-06-21 07:55:00
3:15 AM,77.0,71.6,83,29.82,10.0,South,15.0,25.3,N/A,,Clear,180,2013-06-21 08:15:00
3:35 AM,77.0,71.6,83,29.83,10.0,South,16.1,24.2,N/A,,Clear,190,2013-06-21 08:35:00
3:55 AM,77.0,71.6,83,29.84,10.0,South,13.8,21.9,N/A,,Scattered Clouds,190,2013-06-21 08:55:00
4:15 AM,77.0,71.6,83,29.85,10.0,South,12.7,18.4,N/A,,Mostly Cloudy,190,2013-06-21 09:15:00
4:35 AM,77.0,71.6,83,29.85,10.0,South,10.4,-,N/A,,Mostly Cloudy,190,2013-06-21 09:35:00
4:55 AM,77.0,71.6,83,29.85,10.0,South,11.5,17.3,N/A,,Scattered Clouds,190,2013-06-21 09:55:00
5:15 AM,77.0,71.6,83,29.85,10.0,South,12.7,-,N/A,,Mostly Cloudy,180,2013-06-21 10:15:00
5:35 AM,77.0,71.6,83,29.86,10.0,South,11.5,18.4,N/A,,Mostly Cloudy,190,2013-06-21 10:35:00
5:55 AM,77.0,71.6,83,29.86,10.0,South,12.7,-,N/A,,Overcast,180,2013-06-21 10:55:00
6:15 AM,77.0,71.6,83,29.86,10.0,South,11.5,19.6,N/A,,Mostly Cloudy,190,2013-06-21 11:15:00
6:35 AM,77.0,71.6,83,29.86,9.0,South,16.1,21.9,N/A,,Clear,180,2013-06-21 11:35:00
6:55 AM,77.0,71.6,83,29.85,9.0,South,13.8,19.6,N/A,,Clear,190,2013-06-21 11:55:00
7:15 AM,77.0,71.6,83,29.85,10.0,South,13.8,20.7,N/A,,Clear,180,2013-06-21 12:15:00
7:35 AM,77.0,71.6,83,29.85,9.0,South,13.8,23.0,N/A,,Clear,180,2013-06-21 12:35:00
7:55 AM,77.0,71.6,83,29.86,10.0,South,12.7,21.9,N/A,,Clear,180,2013-06-21 12:55:00
8:15 AM,78.8,71.6,78,29.86,9.0,South,16.1,-,N/A,,Clear,190,2013-06-21 13:15:00
8:35 AM,78.8,71.6,78,29.87,9.0,South,11.5,24.2,N/A,,Clear,190,2013-06-21 13:35:00
8:55 AM,78.8,71.6,78,29.86,9.0,South,16.1,23.0,N/A,,Clear,180,2013-06-21 13:55:00
9:15 AM,80.6,71.6,74,29.86,9.0,South,17.3,26.5,N/A,,Clear,190,2013-06-21 14:15:00
9:35 AM,80.6,71.6,74,29.87,9.0,South,11.5,24.2,N/A,,Clear,190,2013-06-21 14:35:00
9:55 AM,82.4,71.6,70,29.87,9.0,South,16.1,26.5,N/A,,Clear,190,2013-06-21 14:55:00
10:15 AM,82.4,71.6,70,29.88,9.0,South,12.7,19.6,N/A,,Clear,190,2013-06-21 15:15:00
10:35 AM,84.2,71.6,66,29.89,9.0,SSE,11.5,-,N/A,,Clear,150,2013-06-21 15:35:00
10:55 AM,84.2,71.6,66,29.90,9.0,South,11.5,-,N/A,,Partly Cloudy,170,2013-06-21 15:55:00
11:15 AM,84.2,71.6,66,29.88,9.0,South,9.2,18.4,N/A,,Partly Cloudy,180,2013-06-21 16:15:00
11:35 AM,86.0,69.8,58,29.90,9.0,SSW,11.5,18.4,N/A,,Partly Cloudy,200,2013-06-21 16:35:00
11:55 AM,86.0,69.8,58,29.91,9.0,South,13.8,19.6,N/A,,Partly Cloudy,190,2013-06-21 16:55:00
12:15 PM,84.2,69.8,62,29.93,9.0,SSW,10.4,18.4,N/A,,Mostly Cloudy,210,2013-06-21 17:15:00
12:35 PM,80.6,71.6,74,29.85,7.0,East,16.1,-,N/A,Rain,Light Rain,100,2013-06-21 17:35:00
12:55 PM,82.4,71.6,70,29.90,9.0,SSE,12.7,-,N/A,,Clear,150,2013-06-21 17:55:00
1:15 PM,82.4,71.6,70,29.85,9.0,SSE,15.0,21.9,N/A,,Clear,150,2013-06-21 18:15:00
1:35 PM,86.0,71.6,62,29.87,9.0,South,17.3,26.5,N/A,,Clear,170,2013-06-21 18:35:00
1:55 PM,87.8,69.8,55,29.85,9.0,South,20.7,26.5,N/A,,Clear,170,2013-06-21 18:55:00
2:15 PM,87.8,71.6,58,29.85,9.0,South,20.7,28.8,N/A,,Clear,170,2013-06-21 19:15:00
2:35 PM,87.8,69.8,55,29.84,9.0,SSE,20.7,29.9,N/A,,Clear,160,2013-06-21 19:35:00
2:55 PM,87.8,68.0,52,29.83,10.0,South,21.9,29.9,N/A,,Clear,170,2013-06-21 19:55:00
3:15 PM,89.6,69.8,52,29.82,10.0,SSE,19.6,29.9,N/A,,Clear,160,2013-06-21 20:15:00
3:35 PM,87.8,69.8,55,29.82,10.0,SSE,21.9,38.0,N/A,,Clear,160,2013-06-21 20:35:00
3:55 PM,87.8,69.8,55,29.81,10.0,SSE,21.9,32.2,N/A,,Clear,160,2013-06-21 20:55:00
4:15 PM,89.6,71.6,55,29.82,9.0,SSE,25.3,31.1,N/A,,Clear,160,2013-06-21 21:15:00
4:35 PM,91.4,71.6,52,29.82,10.0,South,19.6,31.1,N/A,,Clear,170,2013-06-21 21:35:00
4:55 PM,91.4,71.6,52,29.81,10.0,South,23.0,32.2,N/A,,Clear,170,2013-06-21 21:55:00
5:15 PM,91.4,69.8,49,29.80,10.0,South,16.1,34.5,N/A,,Clear,180,2013-06-21 22:15:00
5:35 PM,89.6,66.2,46,29.80,10.0,South,18.4,28.8,N/A,,Clear,180,2013-06-21 22:35:00
5:55 PM,89.6,69.8,52,29.80,10.0,South,17.3,25.3,N/A,,Clear,170,2013-06-21 22:55:00
6:15 PM,89.6,69.8,52,29.81,10.0,South,19.6,-,N/A,,Clear,170,2013-06-21 23:15:00
6:35 PM,87.8,71.6,58,29.81,10.0,South,12.7,19.6,N/A,,Clear,170,2013-06-21 23:35:00
6:55 PM,87.8,71.6,58,29.82,9.0,South,15.0,20.7,N/A,,Clear,180,2013-06-21 23:55:00
7:15 PM,87.8,73.4,62,29.82,9.0,South,18.4,-,N/A,,Clear,170,2013-06-22 00:15:00
7:35 PM,87.8,73.4,62,29.82,10.0,SSE,17.3,-,N/A,,Clear,160,2013-06-22 00:35:00
7:55 PM,87.8,73.4,62,29.83,9.0,South,15.0,21.9,N/A,,Clear,170,2013-06-22 00:55:00
8:15 PM,86.0,73.4,66,29.83,9.0,SSE,12.7,19.6,N/A,,Clear,160,2013-06-22 01:15:00
8:35 PM,86.0,73.4,66,29.84,-9999.0,SSE,11.5,19.6,N/A,,Clear,160,2013-06-22 01:35:00
9:15 PM,84.2,73.4,70,29.84,9.0,SSE,10.4,-,N/A,,Clear,150,2013-06-22 02:15:00
9:55 PM,84.2,71.6,66,29.84,10.0,SSE,12.7,-,N/A,,Clear,160,2013-06-22 02:55:00
10:35 PM,84.2,69.8,62,29.84,10.0,South,17.3,23.0,N/A,,Clear,170,2013-06-22 03:35:00
10:55 PM,82.4,69.8,66,29.83,10.0,South,18.4,26.5,N/A,,Clear,170,2013-06-22 03:55:00
11:15 PM,82.4,69.8,66,29.83,10.0,South,17.3,23.0,N/A,,Clear,170,2013-06-22 04:15:00
11:35 PM,82.4,69.8,66,29.82,10.0,South,17.3,27.6,N/A,,Clear,170,2013-06-22 04:35:00
11:55 PM,80.6,69.8,70,29.83,10.0,South,16.1,24.2,N/A,,Clear,170,2013-06-22 04:55:00